Location: Madingley
(52.2167°N, 0.0500°E)
Time: 11:04:31
(UTC+00:00)

USA 290 - Pass Details

Date: 15 May 2026
Orbit: 396 x 415 km, 73.6° (Epoch: 30 October)

Event Time Altitude Azimuth Distance (km) Brightness Sun altitude
Exits shadow 21:18:07 18° 154° (SSE) 1,061 3.7 -10.9°
Maximum altitude 21:19:44 27° 107° (ESE) 784 3.2 -11.1°
Drops below altitude 10° 21:22:28 10° 46° (NE) 1,435 5.0 -11.3°
Sets 21:24:40 0° 35° (NE) 2,296 6.3 -11.5°
